74P weather

Calvada Meadows Airport
Pahrump, Nevada, United States

Public forecast

Using degrees Fahrenheit for public forecast. Weather courtesy of forecast.io.

Closest aviation weather report (METAR) to Calvada Meadows Airport

Closest report is Desert Rock Airport, 21.0 nm (38.9 km) N. Retrieved 2019/11/11 18:53 UTC (1 hour ago):

KDRA 111853Z AUTO 04010KT 10SM CLR 23/M09 A3017 RMK AO2 SLP190 T02331094

Closest aviation forecast (TAF) to Calvada Meadows Airport

Forecast is more than 12 hours old.

Closest forecast is Desert Rock Airport, 21.0 nm (38.9 km) N. Retrieved 2011/12/07 06:36 UTC (8 years ago):

TAF KDRA 070532Z 0706/0806 VRB04KT P6SM SKC